FW1372 Weather Reports


time (UTC)temp
C
wind
direction
speed
KPH
gust
KPH
rain 1hr
cm
rain 24hr
cm
rain mn
cm
humidity
%
barometer
mb
20180221225618 9 271 0.0 0.0 0.00 0.00 0.00 70 1009.0
20180221225118 10 271 0.0 0.0 0.00 0.00 0.00 70 1009.1
20180221224618 10 271 0.0 3.2 0.00 0.00 0.00 69 1009.1
20180221224118 10 271 0.0 3.2 0.00 0.00 0.00 68 1009.0
20180221223618 10 271 0.0 3.2 0.00 0.00 0.00 69 1009.0
20180221223118 10 271 0.0 0.0 0.00 0.00 0.00 69 1008.9
20180221222618 10 271 0.0 0.0 0.00 0.00 0.00 69 1008.9
20180221222118 10 271 0.0 0.0 0.00 0.00 0.00 69 1009.0
20180221221618 10 271 0.0 0.0 0.00 0.00 0.00 69 1008.9
20180221221118 10 271 0.0 0.0 0.00 0.00 0.00 69 1008.9
20180221220618 10 271 0.0 0.0 0.00 0.00 0.00 70 1008.9
20180221220118 10 271 0.0 0.0 0.00 0.00 0.00 70 1008.9
20180221215618 10 271 0.0 0.0 0.00 0.00 0.00 70 1008.9
20180221215118 10 271 0.0 0.0 0.00 0.00 0.00 71 1008.8
20180221214618 10 271 0.0 0.0 0.00 0.00 0.00 71 1008.8
20180221214118 10 271 0.0 0.0 0.00 0.00 0.00 70 1008.8
20180221213117 10 271 0.0 0.0 0.00 0.00 0.00 71 1008.8
20180221212617 10 271 0.0 0.0 0.00 0.00 0.00 71 1008.8
20180221212117 10 271 0.0 0.0 0.00 0.00 0.00 72 1008.6
20180221211618 10 271 0.0 0.0 0.00 0.00 0.00 71 1008.7
20180221211117 10 266 0.0 0.0 0.00 0.00 0.00 71 1008.6
20180221210617 10 274 0.0 0.0 0.00 0.00 0.00 69 1008.6
20180221210117 11 274 0.0 0.0 0.00 0.00 0.00 70 1008.6
20180221205617 11 274 0.0 0.0 0.00 0.00 0.00 69 1008.5
20180221205117 11 274 0.0 1.6 0.00 0.00 0.00 68 1008.6
20180221204617 11 267 0.0 9.7 0.00 0.00 0.00 68 1008.5
20180221204117 12 254 0.0 9.7 0.00 0.00 0.00 67 1008.5
20180221203617 12 284 0.0 11.3 0.00 0.00 0.00 67 1008.5
20180221202617 11 266 3.2 11.3 0.00 0.00 0.00 68 1008.3
20180221202117 11 279 4.8 6.4 0.00 0.00 0.00 69 1008.3
20180221201617 11 253 0.0 6.4 0.00 0.00 0.00 69 1008.3
20180221201117 11 289 0.0 6.4 0.00 0.00 0.00 69 1008.2
20180221200616 11 154 0.0 11.3 0.00 0.00 0.00 70 1008.2
20180221200116 11 310 0.0 11.3 0.00 0.00 0.00 70 1008.2
20180221195616 11 203 0.0 12.9 0.00 0.00 0.00 71 1008.1
20180221194617 11 239 1.6 12.9 0.00 0.00 0.00 73 1008.0
20180221194116 11 232 12.9 12.9 0.00 0.00 0.00 74 1008.0
20180221193616 11 215 0.0 16.1 0.00 0.00 0.00 75 1008.0
20180221193116 11 289 8.0 16.1 0.00 0.00 0.00 75 1008.0
20180221192616 11 261 0.0 16.1 0.00 0.00 0.00 76 1008.0
20180221191116 11 250 8.0 11.3 0.00 0.00 0.00 76 1007.9
20180221190616 11 150 0.0 17.7 0.00 0.00 0.00 75 1007.8
20180221190116 11 160 1.6 17.7 0.00 0.00 0.00 75 1007.8
20180221185616 12 325 4.8 22.5 0.00 0.00 0.00 76 1007.7
20180221185116 12 259 1.6 24.1 0.00 0.00 0.00 76 1007.7
20180221184616 12 315 9.7 25.7 0.00 0.00 0.00 76 1007.6
20180221184116 12 298 19.3 25.7 0.00 0.00 0.00 75 1007.6
20180221183116 12 281 11.3 25.7 0.00 0.00 0.00 75 1007.6
20180221182616 12 298 16.1 27.4 0.00 0.00 0.00 75 1007.6
20180221182115 12 301 16.1 27.4 0.00 0.00 0.00 75 1007.7
20180221181115 12 310 3.2 33.8 0.00 0.00 0.00 74 1007.6
20180221180616 12 336 19.3 33.8 0.00 0.00 0.00 72 1007.6
20180221180116 13 291 19.3 33.8 0.00 0.00 0.00 72 1007.6
20180221175616 13 297 11.3 32.2 0.00 0.00 0.00 71 1007.5
20180221175116 13 295 29.0 32.2 0.00 0.00 0.00 70 1007.5
20180221174615 13 320 27.4 29.0 0.00 0.00 0.00 70 1007.3
20180221174115 13 310 20.9 27.4 0.00 0.00 0.00 69 1007.4
20180221173615 13 298 12.9 29.0 0.00 0.00 0.00 68 1007.3
20180221173115 13 303 17.7 29.0 0.00 0.00 0.00 67 1007.4
20180221172615 14 282 19.3 29.0 0.00 0.00 0.00 66 1007.4
20180221172115 14 315 8.0 25.7 0.00 0.00 0.00 65 1007.4
20180221171645 14 315 8.0 25.7 0.00 0.00 0.00 65 1007.4
20180221171131 14 306 19.3 25.7 0.00 0.00 0.00 64 1007.4
20180221170615 15 330 9.7 27.4 0.00 0.00 0.00 63 1007.3
20180221170115 15 297 20.9 27.4 0.00 0.00 0.00 63 1007.3
20180221165615 15 320 16.1 27.4 0.00 0.00 0.00 62 1007.2
20180221165115 15 289 16.1 27.4 0.00 0.00 0.00 62 1007.3